Date,TemperatureHighF,TemperatureAvgF,TemperatureLowF,DewpointHighF,DewpointAvgF,DewpointLowF,HumidityHigh,HumidityAvg,HumidityLow,PressureMaxIn,PressureMinIn,WindSpeedMaxMPH,WindSpeedAvgMPH,GustSpeedMaxMPH,PrecipitationSumIn
2013-3-1,41.4,35.9,29.5,36.5,30.6,28.4,99,82,64,29.67,29.52,9,2,11,0.14
2013-3-2,42.6,36.4,30.2,30.1,27.8,25.4,86,71,57,29.67,29.61,9,2,12,0.01
2013-3-3,41.9,34.6,31.5,32.8,29.2,25.8,99,81,66,29.64,29.55,8,2,8,0.00
2013-3-4,39.9,33.8,28.6,27.9,24.5,21.1,82,69,51,29.74,29.57,12,4,14,0.00
2013-3-5,45.9,35.5,30.2,31.5,27.1,23.2,94,72,51,30.06,29.74,11,2,11,0.01
2013-3-6,39.7,35.3,31.8,36.4,33.2,30.3,99,92,71,30.10,30.03,14,3,14,0.11
2013-3-7,34.5,31.7,29.7,32.4,30.5,29.0,99,95,81,30.06,29.98,11,2,22,0.12
2013-3-8,33.6,30.3,27.3,33.4,30.1,27.1,99,99,99,30.14,29.93,8,0,10,0.00
2013-3-9,53.4,33.7,23.4,31.9,26.5,21.6,99,79,30,30.35,30.14,10,1,10,0.90
2013-3-10,47.7,33.1,20.7,34.4,28.4,20.5,99,85,54,30.41,30.30,5,1,8,0.11
2013-3-11,56.8,42.1,32.7,41.1,35.8,30.9,99,81,44,30.32,30.14,7,2,8,0.00
2013-3-12,55.9,48.1,39.4,53.3,47.3,39.1,99,97,83,30.15,29.71,8,2,11,0.31
2013-3-13,53.6,42.5,29.5,50.5,31.3,18.6,99,69,29,29.78,29.70,14,2,14,0.20
2013-3-14,35.1,29.7,21.7,25.0,15.6,6.2,83,57,38,29.83,29.70,21,4,21,0.00
2013-3-15,42.6,29.9,18.3,27.6,12.7,0.5,78,51,18,29.86,29.62,14,4,15,0.00
2013-3-16,41.5,33.0,26.2,26.9,15.3,5.5,81,50,24,29.87,29.65,10,2,11,0.00
2013-3-17,40.3,29.7,19.9,18.1,10.6,-2.7,81,48,16,30.31,29.86,14,3,17,0.00
2013-3-18,39.9,27.5,15.1,24.9,7.2,-2.9,82,45,17,30.45,30.24,7,2,7,0.00
2013-3-19,34.7,31.6,27.5,34.4,31.2,26.5,99,99,94,30.23,29.60,8,1,8,0.18
2013-3-20,42.4,30.1,22.5,27.1,22.6,18.0,99,77,39,29.80,29.69,12,2,12,0.40
2013-3-21,40.1,28.5,19.2,29.0,23.3,16.2,97,83,38,29.81,29.59,5,0,5,0.18
2013-3-22,42.4,32.9,25.9,26.8,19.9,14.7,99,61,34,29.74,29.59,10,3,12,0.21
2013-3-23,44.6,34.5,25.0,23.8,19.8,15.8,81,57,33,29.78,29.62,18,4,18,0.13
2013-3-24,50.7,37.5,28.8,28.7,23.1,19.9,85,58,32,29.81,29.71,12,2,12,0.00
2013-3-25,44.1,35.3,28.2,33.8,30.2,25.9,93,82,66,29.76,29.51,8,1,11,0.00
2013-3-26,52.7,38.7,32.2,31.1,26.2,17.7,87,64,26,29.77,29.53,9,2,9,0.00
2013-3-27,55.4,42.0,25.2,31.5,24.8,19.6,85,54,28,29.86,29.73,14,3,14,0.00
2013-3-28,48.4,41.0,34.5,36.8,33.6,28.9,98,77,48,30.01,29.86,8,1,10,0.01
2013-3-29,56.7,42.9,28.9,38.2,31.5,26.6,99,68,34,30.04,29.96,9,1,14,0.00
2013-3-30,60.6,45.2,31.5,33.5,21.4,2.0,91,48,10,30.10,30.00,12,2,18,0.00
2013-3-31,61.9,44.2,25.5,40.6,25.2,13.8,90,55,15,30.12,29.74,11,2,14,0.02